Regional Weather Roundup
Issued by NWS Sterling, VA

Home | Current Version | Previous Version | Text Only | Print | Product List | Glossary On
Versions: 1 2 3 4 5 6 7 8 9 10 11 12 13 14 15 16 17 18 19 20 21 22 23 24 25 26 27 28 29 30 31 32 33 34 35 36 37 38 39 40 41 42 43 44 45 46 47 48 49 50
000
ASUS41 KLWX 222210
RWRLWX

REGIONAL WEATHER ROUNDUP
NATIONAL WEATHER SERVICE BALTIMORE MD/WASHINGTON DC
600 PM EDT FRI MAY 22 2015

Note: "FAIR" indicates few or no clouds below 12,000 feet
with no significant weather and/or obstructions to visibility.
 TC=TEMPERATURE CELSIUS

 * =Non NWS site. Station does not report precipitation (e.g. rain,
    snow, etc.), thunder, or fog.

DCZ001-MDZ009-015-VAZ040>042-051-053>054-222300-
WASHINGTON METRO

CITY           SKY/WX    TMP DP  RH WIND       PRES   REMARKS
WASHINGTON NAT MOSUNNY   78  41  26 W12G23    30.08S
DULLES         MOSUNNY   74  38  27 W17G24    30.09S
ANDREWS AFB    SUNNY     75  42  30 W15G24    30.07S
FT BELVOIR     MOSUNNY   76  43  30 W8        30.09S
QUANTICO       MOSUNNY   75  43  31 W7        30.11S
COLLEGE PARK*  MOSUNNY   73  36  25 W13G23    30.07S
LEESBURG*      SUNNY     73  45  35 NW18G29   30.10S
MANASSAS*      MOSUNNY   73  41  31 NW12      30.10R
GAITHERSBURG*  PTSUNNY   70  39  32 W15G28    30.12R

$$

MDZ006>007-011-014-222300-
BALTIMORE METRO

CITY           SKY/WX    TMP DP  RH WIND       PRES   REMARKS
BWI AIRPORT    MOSUNNY   72  39  30 W18G30    30.05S
MD SCIENCE CTR   N/A     74  38  27 MISG      30.06R
MARTIN STATE   PTSUNNY   75  43  31 W20G26    30.06R
ANNAPOLIS      SUNNY     74  39  28 W10G22    30.06S
FORT MEADE*    MOSUNNY   70  41  35 W12G18    30.09S

$$

MDZ012-015-019>023-222300-
MARYLAND EASTERN SHORE

CITY           SKY/WX    TMP DP  RH WIND       PRES   REMARKS
OCEAN CITY     SUNNY     72  45  37 W12G20    30.09R
SALISBURY      SUNNY     71  45  39 SW14      30.09S
BAY BRIDGE AP*   N/A    N/A N/A N/A W10G23    30.06F
CAMBRIDGE*     SUNNY     73  43  33 W9        30.08S
EASTON*        SUNNY     73  46  38 W9G17     30.11S

$$

MDZ017>025-222300-
SOUTHERN MARYLAND

CITY           SKY/WX    TMP DP  RH WIND       PRES   REMARKS
PATUXENT RIVER MOSUNNY   73  43  33 W13       30.10S
ST INIGOES     SUNNY     73  45  36 W8        30.10S
LEONARDTOWN*   SUNNY     72  41  33 W12G17    30.12S

$$

MDZ003>005-222300-
NORTH CENTRAL MARYLAND

CITY           SKY/WX    TMP DP  RH WIND       PRES   REMARKS
FREDERICK*     PTSUNNY   72  46  40 NW14G35   30.11R
HAGERSTOWN APT MOSUNNY   73  42  32 NW14G23   30.08R
WESTMINSTER*   MOSUNNY   72  39  30 W14G21    30.08R

$$

MDZ501>502-222300-
WESTERN MARYLAND

CITY           SKY/WX    TMP DP  RH WIND       PRES   REMARKS
OAKLAND*       PTSUNNY   55  46  71 W9G21     30.19S
CUMBERLAND*    SUNNY     70  41  35 W22G28    30.17R

$$

VAZ025>031-222300-
SHENANDOAH VALLEY

CITY           SKY/WX    TMP DP  RH WIND       PRES   REMARKS
WINCHESTER*    MOSUNNY   73  30  20 W17G25    30.12R
FRONT ROYAL*   CLOUDY    70  39  32 W7        30.12R
LURAY*         MOCLDY    73  41  31 NW13G18   30.14R
NEW MARKET*    MOCLDY    73  38  29 W9        30.12R
STAUNTON*      SUNNY     73  36  25 NW12      30.16S
WAYNESBORO*    FAIR      71  39  31 NW5       30.16R

$$

WVZ021-048>050-054>055-222300-
EASTERN WEST VIRGINIA PANHANDLE

CITY           SKY/WX    TMP DP  RH WIND       PRES   REMARKS
MARTINSBURG    SUNNY     72  43  35 W12       30.10S
PETERSBURG*    PTSUNNY   68  36  31 W16G23    30.16R

$$

VAZ036>039-050-222300-
CENTRAL FOOTHILLS

CITY           SKY/WX    TMP DP  RH WIND       PRES   REMARKS
CHARLOTTESVILL SUNNY     73  43  33 VRB3      30.12S
CULPEPER*      MOSUNNY   74  42  30 W7        30.12R
ORANGE*        MOSUNNY   75  45  33 S8        30.13S
GORDONSVILLE*  MOCLDY    74  43  33 SW7       30.12R
WARRENTON*     FAIR      74  46  37 W3        30.11R

$$

VAZ055>057-222300-
NORTH AND CENTRAL PIEDMONT

CITY           SKY/WX    TMP DP  RH WIND       PRES   REMARKS
FREDERICKSBRG* MOSUNNY   76  45  33 SW9       30.10F
STAFFORD*      PTSUNNY   74  42  32 SW7       30.15S

$$

NCZ024-NYZ072-PAZ021-071-VAZ022-071-222300-
OTHER REGIONAL OBSERVATIONS

CITY           SKY/WX    TMP DP  RH WIND       PRES   REMARKS
NEW YORK CITY  PTSUNNY   70  38  31 W8G18     29.98R
PHILADELPHIA   MOSUNNY   77  36  22 W25G31    30.00S
PITTSBURGH     MOSUNNY   65  30  27 NW23      30.18R
ROANOKE        MOSUNNY   73  39  29 NW12      30.21R
RICHMOND       MOSUNNY   75  39  27 W7        30.14S
RALEIGH        MOSUNNY   74  44  34 VRB5      30.19R

$$

ANZ530>537-222300-
MARINE OBSERVATIONS

STATION/POSITION TIME  TEMP    WIND        PRES
                       AIR SEA DIR/SP/G
                 (UTC) (F)     (DEG/KT/KT) (MB)
THOMAS PT LIGHT  2200   74 65  280/ 18/ 22 1018.5F
BALT KEY BRIDGE  2100   72     250/ 17/ 23 1016.9F
LEWISETTA        2100   72 70              1019.3F
SOLOMONS ISLAND  2100      69                N/A
PINEY POINT      2100          340/  7/  8   N/A

$$




USA.gov is the U.S. government's official web portal to all federal, state and local government web resources and services.